Regional Weather Roundup
Issued by NWS

Home | Current Version | Previous Version | Graphics & Text | Print | Product List | Glossary On
Versions: 1 2 3 4 5 6 7 8 9 10 11 12 13 14 15 16 17 18 19 20 21 22 23 24 25 26 27 28 29 30 31 32 33 34 35 36 37 38 39 40 41 42 43 44 45 46 47 48 49 50
000
ASUS43 KFSD 302010
RWRSD

WEATHER ROUNDUP FOR SOUTH DAKOTA
NATIONAL WEATHER SERVICE SIOUX FALLS SD
200 PM CST FRI JAN 30 2015

NOTE: "FAIR" INDICATES FEW OR NO CLOUDS BELOW 12,000 FEET WITH NO
SIGNIFICANT WEATHER AND/OR OBSTRUCTIONS TO VISIBILITY.


SDZ001>005-009-010-012>017-302100-
NORTHWEST AND NORTH CENTRAL SOUTH DAKOTA

CITY           SKY/WX    TMP DP  RH WIND       PRES   REMARKS
BUFFALO          N/A     50  24  36 W12       30.09F
FAITH            N/A     51  25  36 NW13      30.12F
MOBRIDGE       SUNNY     42  27  55 CALM      30.11F
$$

SDZ012>016-024>037-041>051-057-063-072>074-302100-
SOUTHWEST AND SOUTH CENTRAL SOUTH DAKOTA

CITY           SKY/WX    TMP DP  RH WIND       PRES   REMARKS
RAPID CTY ARPT SUNNY     52  24  33 N18       30.13F
PIERRE         SUNNY     45  24  43 W6        30.13F
CUSTER           N/A     48  14  25 MISG      30.12F
ELLSWORTH AFB  SUNNY     50  24  36 N15       30.13F
PHILIP         SUNNY     50  22  33 NW5       30.13F
PINE RIDGE     PTSUNNY   49  24  37 NW9       30.12F
WINNER         FAIR      54  25  32 SW16      30.14F
$$

SDZ004>011-016>023-039-040-302100-
NORTHEAST SOUTH DAKOTA

CITY           SKY/WX    TMP DP  RH WIND       PRES   REMARKS
ABERDEEN       SUNNY     38  27  64 S15       30.16F
WATERTOWN      SUNNY     36  27  69 S14G25    30.16F
SISSETON         N/A     39  28  64 SW16      30.17F
$$

SDZ017-020-022-023-036>040-048>070-302100-
SOUTHEAST SOUTH DAKOTA

CITY           SKY/WX    TMP DP  RH WIND       PRES   REMARKS
SIOUX FALLS    PTSUNNY   36  26  67 S15G25    30.26F
HURON          SUNNY     40  28  62 S14       30.19F
CHAMBERLAIN    SUNNY     51  27  39 SW13      30.14F
MITCHELL       SUNNY     44  29  55 S18       30.21F
YANKTON        SUNNY     43  27  52 S16       30.26F
$$

ABBREVIATIONS USED IN REMARKS
   TC - TEMPERATURE IN CELSIUS
  WCI - WIND CHILL INDEX
   HX - HEAT INDEX
  VSB - VISIBILITY



USA.gov is the U.S. government's official web portal to all federal, state and local government web resources and services.